FENGYUN 1C DEB

Satellite information

Favourite Embed

Satellite Type and Status

DEBRISIN ORBIT

Key statistics

Satellite FENGYUN 1C DEB at a glance.

Uptime

9554

Days in orbit

Revolutions

≈ 14.2

Per day

Orbit

SSO

Sun Synchronous Orbit

Inclination

99.0

Latest

Satellite identification and parameters

Extended collection of information and parameters for FENGYUN 1C DEB.

Object identification

Identified? True

Debris? True

Object name: FENGYUN 1C DEB

International designator: 1999-025DCF

Object number (NORAD): 33502

Object ID (CCSDS): 33502

Country: PEOPLES REPUBLIC OF CHINA (PRC)

Current information (Y/N): Y

RCS size: SMALL

Orbital parameters

Period: 101.431 minutes

Inclination: 99.0157 deg

SMA: 7204.56 km

Apoapsis: 884.676 km

Periapsis: 768.174 km

RAAN: 126.2893 deg

Eccentricy: 0.0080853

Argument of periapsis: 252.0396 deg

Mean anomaly: 167.756 deg

Mean motion: 14.19683684 rev/day

Mean motion (dot): 0.00002919 rev/day2

B* drag term: 0.0013571 1/REarth

Two-line elements (TLE)

Creation date: July 5, 2025, 10:36 p.m.

Reference frame: TEME

Reference center: EARTH

Epoch: July 5, 2025, 6:12 p.m. UTC

TLE line 0: 0 FENGYUN 1C DEB

TLE line 1: 1 33502U 99025DCF 25186.75841648 .00002919 00000-0 13571-2 0 9993

TLE line 2: 2 33502 99.0157 126.2893 0080853 252.0396 167.7560 14.19683684846839

Live tracking on map

Real-time ground track for satellite FENGYUN 1C DEB.

In-orbit conjunctions

A list of the most updated potential collisions computed for object FENGYUN 1C DEB.

Target Orbit TCA Probability of collision Miss distance Type
METEOR 1-17 LEO 2025-06-16 21:01:07 0.0001028456 304.0 (m) PAYLOAD
SURCAL 159 LEO 2025-04-25 12:50:04 0.0001022136 37.0 (m) PAYLOAD
CZ-6A DEB LEO 2024-11-14 01:29:57 0.0001519101 522.0 (m) DEBRIS
CZ-6A DEB LEO 2024-10-28 08:57:28 0.0003218411 396.0 (m) DEBRIS
FENGYUN 1C DEB SSO 2024-09-23 05:42:30 0.0001092142 178.0 (m) DEBRIS

Associated space launch

Chinese polar orbiting meteorological satellite

FENGYUN 1C DEB was lifted into orbit during the mission ‘Long March 4B | Feng Yun 1C’, on board a Long March 4B space rocket.

The launch took place on May 10, 1999, 1:33 a.m. from Launch Complex 7.

For more information about the launch, click the button.

Launch to space Long March 4B | Feng Yun 1C
Long March 4B | Feng Yun 1C

Agency: N/A

Status: Launch Successful

Launch date: May 10, 1999, 1:33 a.m. UTC

Rocket: Long March 4B

Launch pad: Launch Complex 7

Location: Taiyuan Satellite Launch Center, People's Republic of China

...

Latest news about this satellite

There are no fresh news available about this satellite. Check back as we update our databases every day.


Newsletter sign-up

Weekly statistics, charts and insights to help you stay on top of the space industry.